www.pogodaiklimat.ru

Погода и климат >> Архив погоды >> Япония >> Tokyo


АРХИВ ПОГОДЫ в Tokyo

Время (UTC), дата Ветер
(напр.,м/с)
 
Видим.   Явления Облачность Т
(С)
Тd
(С)
f
(%)
Тe
(С)
Тes
(С)
Комфортность P
(гПа)
Po
(гПа)
Тmin
(С)
Tmax
(С)
R
(мм)
R24
(мм)
S
(см)
13 11.08 СВ 1 н/о н/о +27.1 +26.6 97 +42 +42 опасность
перегрева
1006.8 1004.1
14 11.08 В 3 н/о н/о +27.2 +26.0 93 +41 +41 опасность
перегрева
1007.1 1004.4
15 11.08 СВ 2 н/о н/о +27.2 +26.2 94 +41 +41 опасность
перегрева
1007.5 1004.8
17 11.08 СВ 3 н/о н/о +26.7 +24.7 89 +38 +38 очень
душно
1007.8 1005.1
16 11.08 СВ 4 н/о н/о +27.1 +25.7 92 +40 +40 очень
душно
1007.6 1004.9
18 11.08 СВ 3 15 км {ливн. осадки} 10/10
[Cb calv]
+26.7 +24.6 88 +38 +38 очень
душно
1007.7 1005.0 0.0
19 11.08 С 2 н/о н/о +26.7 +24.2 86 +37 +37 очень
душно
1008.1 1005.4
20 11.08 С 2 н/о н/о +26.7 +24.2 86 +37 +37 очень
душно
1008.9 1006.2
21 11.08 СВ 1 15 км в посл. час ливневой дождь {гроза} 10/10 300 м
[Cu med, cong]
+26.3 +23.8 86 +36 +36 очень
душно
1009.6 1006.8
23 11.08 С 2 н/о н/о +25.6 +23.5 88 +35 +35 очень
душно
1010.5 1007.7
22 11.08 С 2 н/о н/о +25.9 +23.8 88 +35 +35 очень
душно
1010.0 1007.2
00 12.08 С 3 20 км в посл. час ливневой дождь {гроза} 10/6
[Cu med, cong Ac As]
+26.4 +23.7 85 +36 +37 очень
душно
1010.7 1007.9 +25.6 0.0
01 12.08 С 2 н/о н/о +27.4 +23.9 81 +38 +38 очень
душно
1010.8 1008.1
02 12.08 С 2 н/о н/о +28.8 +25.0 80 +42 +42 опасность
перегрева
1010.7 1008.0
03 12.08 СЗ 2 20 км 10/8
[Cu med, cong Ac As]
+29.2 +24.5 76 +41 +42 опасность
перегрева
1010.4 1007.7
05 12.08 Ю 2 н/о н/о +29.1 +25.5 81 +43 +43 опасность
перегрева
1009.6 1006.9
04 12.08 З 2 н/о н/о +29.8 +26.0 80 +45 +45 опасность
перегрева
1009.8 1007.1
06 12.08 ЮВ 3 20 км 9/9
[Cu med, cong]
+29.1 +25.7 82 +43 +44 опасность
перегрева
1009.4 1006.7
07 12.08 Ю 2 н/о н/о +29.3 +26.1 83 +44 +44 опасность
перегрева
1009.5 1006.8
08 12.08 Ю 3 н/о н/о +28.7 +25.1 81 +42 +42 опасность
перегрева
1009.6 1006.9
09 12.08 Ю 3 7000 м дымка 9/9
[Cu Sc Ac As]
+28.4 +25.0 82 +41 +41 опасность
перегрева
1009.9 1007.2
11 12.08 ЮВ 1 н/о н/о +28.0 +25.4 86 +41 +41 опасность
перегрева
1011.1 1008.4
10 12.08 Ю 3 н/о н/о +28.0 +25.0 84 +40 +40 очень
душно
1010.7 1008.0
12 12.08 Ю 2 15 км 9/9
[Cu Sc]
+27.7 +25.7 89 +41 +41 опасность
перегрева
1011.6 1008.9 +31.1
13 12.08 З 2 н/о н/о +27.7 +25.9 90 +41 +41 опасность
перегрева
1011.5 1008.8
14 12.08 ЮВ 1 н/о н/о +27.3 +25.9 92 +41 +41 опасность
перегрева
1010.8 1008.1
15 12.08 ЮЗ 2 н/о н/о +27.1 +25.7 92 +40 +40 очень
душно
1011.2 1008.5
17 12.08 З 1 н/о н/о +26.2 +25.7 97 +39 +39 очень
душно
1011.0 1008.2
16 12.08 СЗ 2 н/о н/о +26.5 +25.6 95 +39 +39 очень
душно
1010.8 1008.0
18 12.08 С 2 15 км {ливн. осадки} 9/9
[Cu med, cong]
+27.2 +25.8 92 +40 +40 очень
душно
1011.1 1008.4 0.0
19 12.08 СЗ 2 н/о н/о +27.0 +25.8 93 +40 +40 очень
душно
1011.4 1008.6
20 12.08 С 1 н/о н/о +26.4 +25.5 95 +39 +39 очень
душно
1011.8 1009.0
21 12.08 СЗ 2 10 км 5/1
[Cu Sc Ac trans Ci fib]
+26.4 +25.7 96 +39 +40 очень
душно
1012.0 1009.2
23 12.08 З 1 н/о н/о +28.4 +26.6 90 +44 +44 опасность
перегрева
1012.3 1009.6
22 12.08 З 2 н/о н/о +28.1 +25.9 88 +42 +42 опасность
перегрева
1011.9 1009.2
00 13.08 ЮВ 1 15 км в посл. час ливневой дождь 9/9 600 м
[Cu med, cong]
+28.7 +25.7 84 +43 +44 опасность
перегрева
1012.2 1009.5 +26.1 0.0
01 13.08 В 1 н/о н/о +30.5 +26.2 78 +46 +46 опасность
перегрева
1011.9 1009.2
02 13.08 ЮВ 2 н/о н/о +31.7 +27.4 78 +50 +50 опасность
перегрева
1011.6 1008.9
03 13.08 ЮВ 4 15 км 5/4
[Cu med, cong Ac trans Ci fib]
+32.5 +25.8 68 +48 +56 опасность
перегрева
1011.0 1008.3
05 13.08 ЮВ 5 н/о н/о +33.4 +26.4 67 +50 +50 опасность
перегрева
1010.1 1007.4
04 13.08 ЮВ 5 н/о н/о +33.3 +26.1 66 +49 +49 опасность
перегрева
1010.4 1007.7
06 13.08 З 4 6000 м гроза, ливневой дождь 9/9
[Cb cap]
+27.2 +26.9 98 +42 +43 опасность
перегрева
1010.8 1008.1 6
07 13.08 ЮЗ 2 н/о н/о +26.3 +26.0 98 +39 +39 очень
душно
1011.1 1008.3
08 13.08 ЮЗ 3 н/о н/о +25.7 +25.7 100 +38 +38 очень
душно
1011.1 1008.3
09 13.08 ЮЗ 2 15 км слабый ливневой дождь {гроза} 10/9
[Cu med, cong Ac As]
+24.8 +24.8 100 +35 +35 очень
душно
1011.7 1008.9
11 13.08 ЮВ 2 н/о н/о +25.3 +25.3 100 +36 +36 очень
душно
1011.8 1009.0
10 13.08 З 2 н/о н/о +25.2 +25.2 100 +36 +36 очень
душно
1011.7 1008.9
12 13.08 Ю 3 20 км {гроза, ливн. осадки} 9/1
[Cu med, cong Ac trans Ci sp]
+25.0 +25.0 100 +36 +36 очень
душно
1012.3 1009.5 +34.1 11
13 13.08 ЮЗ 3 н/о н/о +24.9 +24.9 100 +35 +35 очень
душно
1012.7 1009.9
14 13.08 ЮЗ 2 н/о н/о +24.9 +24.9 100 +35 +35 очень
душно
1012.8 1010.0
15 13.08 Ю 2 н/о н/о +24.9 +24.9 100 +35 +35 очень
душно
1012.4 1009.6
17 13.08 Ю 3 н/о н/о +24.9 +24.9 100 +35 +35 очень
душно
1012.2 1009.4
16 13.08 ЮЗ 2 н/о н/о +25.0 +25.0 100 +36 +36 очень
душно
1012.1 1009.3
18 13.08 ЮЗ 2 20 км 4/1
[Cu hum Ci sp]
+24.7 +24.7 100 +35 +35 очень
душно
1012.4 1009.6
19 13.08 З 2 н/о н/о +24.5 +24.5 100 +34 +34 очень
душно
1012.4 1009.6
20 13.08 З 2 н/о н/о +24.0 +24.0 100 +33 +33 очень
душно
1012.7 1009.9
21 13.08 ЮЗ 2 20 км 9/3
[Cu Sc Ci sp]
+24.8 +24.8 100 +35 +36 очень
душно
1013.2 1010.4
23 13.08 ЮЗ 2 н/о н/о +27.6 +24.1 81 +38 +38 очень
душно
1013.4 1010.6
22 13.08 Ю 2 н/о н/о +25.7 +24.8 95 +36 +36 очень
душно
1013.2 1010.4
00 14.08 Ю 4 25 км 6/3
[Cu med, cong Ci sp]
+30.1 +26.1 79 +45 +51 опасность
перегрева
1013.5 1010.8 +23.9
01 14.08 Ю 4 н/о н/о +30.5 +25.6 75 +45 +45 опасность
перегрева
1013.7 1011.0
02 14.08 Ю 4 н/о н/о +33.1 +26.4 68 +50 +50 опасность
перегрева
1013.4 1010.7
03 14.08 Ю 5 25 км 9/4
[Cu med, cong Ci sp]
+33.4 +25.1 62 +47 +53 опасность
перегрева
1012.9 1010.2
05 14.08 Ю 6 н/о н/о +32.1 +25.2 67 +46 +46 опасность
перегрева
1012.3 1009.6
04 14.08 Ю 4 н/о н/о +33.3 +26.3 67 +50 +50 опасность
перегрева
1012.5 1009.8
06 14.08 Ю 7 25 км 8/3
[Cu med, cong Ac trans Ci sp]
+32.4 +25.0 65 +46 +47 опасность
перегрева
1012.0 1009.3
07 14.08 Ю 7 н/о н/о +31.8 +24.7 66 +45 +45 опасность
перегрева
1012.2 1009.5
08 14.08 Ю 6 н/о н/о +30.9 +24.1 67 +43 +43 опасность
перегрева
1011.9 1009.2
09 14.08 Ю 5 25 км 8/3
[Cu med, cong Ac trans Ci sp]
+29.8 +23.7 70 +41 +41 опасность
перегрева
1012.3 1009.6
11 14.08 Ю 7 н/о н/о +29.0 +23.7 73 +40 +40 очень
душно
1013.4 1010.7
10 14.08 Ю 5 н/о н/о +29.4 +23.4 70 +40 +40 очень
душно
1012.7 1010.0
12 14.08 Ю 7 20 км 6/1
[Cu hum Ac trans Ci sp]
+28.8 +23.7 74 +39 +39 очень
душно
1014.0 1011.3 +34.1
13 14.08 Ю 4 н/о н/о +28.7 +23.6 74 +39 +39 очень
душно
1014.1 1011.4
14 14.08 Ю 5 н/о н/о +28.6 +23.5 74 +39 +39 очень
душно
1014.0 1011.3
15 14.08 Ю 5 н/о н/о +28.4 +23.5 75 +39 +39 очень
душно
1013.8 1011.1
17 14.08 Ю 5 н/о н/о +27.8 +24.0 80 +39 +39 очень
душно
1013.6 1010.9
16 14.08 Ю 6 н/о н/о +27.9 +24.1 80 +39 +39 очень
душно
1013.5 1010.8
18 14.08 Ю 4 20 км 8/0
[Ac trans Ci sp]
+27.5 +24.0 81 +38 +38 очень
душно
1013.6 1010.8
19 14.08 Ю 5 н/о н/о +27.6 +23.8 80 +38 +38 очень
душно
1013.7 1010.9
20 14.08 Ю 5 н/о н/о +27.4 +23.9 81 +38 +38 очень
душно
1014.2 1011.4
21 14.08 Ю 4 25 км 9/1
[Cu med, cong Ac trans Ci sp]
+27.8 +24.2 81 +39 +39 очень
душно
1014.6 1011.8
23 14.08 Ю 4 н/о н/о +30.9 +24.8 70 +44 +44 опасность
перегрева
1014.7 1012.0
22 14.08 Ю 6 н/о н/о +29.2 +24.1 74 +41 +41 опасность
перегрева
1014.8 1012.1
00 15.08 Ю 6 25 км 9/1
[Cu Sc Ac trans Ci sp]
+31.5 +23.9 64 +43 +45 опасность
перегрева
1014.6 1011.9 +27.2
01 15.08 Ю 7 н/о н/о +31.8 +23.6 62 +43 +43 опасность
перегрева
1014.3 1011.6
02 15.08 Ю 6 н/о н/о +31.9 +24.2 64 +44 +44 опасность
перегрева
1014.0 1011.3
03 15.08 Ю 6 25 км 9/1
[Cu med, cong Ac trans Ci sp]
+32.7 +24.2 61 +45 +49 опасность
перегрева
1013.4 1010.7
05 15.08 Ю 8 н/о н/о +32.5 +24.5 63 +45 +45 опасность
перегрева
1012.1 1009.4
04 15.08 Ю 7 н/о н/о +32.4 +23.9 61 +44 +44 опасность
перегрева
1012.9 1010.2
06 15.08 Ю 7 25 км 9/3
[Cb calv Ac trans Ci sp]
+32.0 +23.5 61 +43 +44 опасность
перегрева
1011.7 1009.0
07 15.08 Ю 6 н/о н/о +31.3 +24.9 69 +45 +45 опасность
перегрева
1011.3 1008.6
08 15.08 Ю 7 н/о н/о +30.1 +24.5 72 +42 +42 опасность
перегрева
1011.1 1008.4
09 15.08 Ю 6 25 км 9/1
[Cu Sc Ac trans Ci sp]
+29.4 +23.6 71 +40 +40 очень
душно
1011.2 1008.5
11 15.08 Ю 6 н/о н/о +29.0 +23.9 74 +40 +40 очень
душно
1011.8 1009.1
10 15.08 Ю 5 н/о н/о +29.0 +24.3 76 +41 +41 опасность
перегрева
1011.7 1009.0
12 15.08 Ю 6 20 км 9/1
[Cu med, cong Ac trans Ci sp]
+28.6 +24.2 77 +40 +40 очень
душно
1011.9 1009.2 +33.1
13 15.08 Ю 6 н/о н/о +28.5 +24.3 78 +40 +40 очень
душно
1011.3 1008.6
14 15.08 Ю 6 н/о н/о +28.3 +24.3 79 +40 +40 очень
душно
1010.8 1008.1
15 15.08 Ю 6 н/о н/о +27.9 +23.9 79 +39 +39 очень
душно
1010.2 1007.5
17 15.08 Ю 6 н/о н/о +27.6 +24.1 81 +38 +38 очень
душно
1009.1 1006.4
16 15.08 Ю 6 н/о н/о +27.7 +23.7 79 +38 +38 очень
душно
1009.5 1006.8
18 15.08 Ю 5 20 км 6/3
[Cu med, cong Ac As Ci sp]
+27.6 +23.8 80 +38 +38 очень
душно
1008.7 1006.0
19 15.08 Ю 6 н/о н/о +27.7 +24.1 81 +39 +39 очень
душно
1008.5 1005.8
20 15.08 Ю 5 н/о н/о +27.4 +24.5 84 +39 +39 очень
душно
1008.5 1005.8
21 15.08 Ю 7 20 км 8/3
[Cu Sc Ac trans Ci sp]
+27.7 +24.6 83 +39 +39 очень
душно
1008.0 1005.3
23 15.08 Ю 7 н/о н/о +30.0 +24.4 72 +42 +42 опасность
перегрева
1007.4 1004.7
22 15.08 Ю 5 н/о н/о +28.7 +24.5 78 +41 +41 опасность
перегрева
1007.7 1005.0
00 16.08 Ю 6 25 км 9/3
[Cu med, cong Ac As Ci sp]
+31.1 +24.3 67 +43 +45 опасность
перегрева
1007.1 1004.4 +27.3
01 16.08 Ю 6 н/о н/о +31.7 +23.5 62 +43 +43 опасность
перегрева
1007.0 1004.3
02 16.08 ЮЗ 8 н/о н/о +31.6 +24.2 65 +44 +44 опасность
перегрева
1006.3 1003.6
03 16.08 Ю 10 25 км 9/1
[Cu med, cong Ac trans Ci sp]
+31.0 +23.1 63 +41 +42 опасность
перегрева
1005.4 1002.7
05 16.08 Ю 8 н/о н/о +30.8 +23.2 64 +41 +41 опасность
перегрева
1004.2 1001.5
04 16.08 Ю 8 н/о н/о +30.3 +23.2 66 +41 +41 опасность
перегрева
1005.3 1002.6
06 16.08 Ю 8 25 км 9/1
[Cu med, cong Ac As Ci sp]
+30.6 +23.5 66 +41 +42 опасность
перегрева
1003.7 1001.0
07 16.08 Ю 7 н/о н/о +30.0 +23.2 67 +40 +40 очень
душно
1003.7 1001.0
08 16.08 Ю 7 н/о н/о +30.0 +23.2 67 +40 +40 очень
душно
1003.7 1001.0
09 16.08 ЮЗ 5 20 км 9/9
[Cu med, cong Ac As Ci sp]
+29.7 +23.2 68 +40 +40 очень
душно
1004.6 1001.9
11 16.08 ЮЗ 3 н/о н/о +28.8 +23.5 73 +39 +39 очень
душно
1004.6 1001.9
10 16.08 Ю 5 н/о н/о +28.9 +22.9 70 +38 +38 очень
душно
1003.7 1001.0
12 16.08 ЮЗ 3 20 км {ливн. осадки} 9/9
[Cu med, cong Ac As]
+28.7 +23.4 73 +39 +39 очень
душно
1005.1 1002.4 +32.3 0.0
13 16.08 СЗ 3 н/о н/о +27.4 +22.1 73 +36 +36 очень
душно
1005.2 1002.5
14 16.08 СЗ 2 н/о н/о +27.2 +21.3 70 +34 +34 очень
душно
1005.2 1002.5
15 16.08 СЗ 4 н/о н/о +26.8 +21.1 71 +34 +34 очень
душно
1004.9 1002.2
17 16.08 СЗ 4 н/о н/о +26.8 +19.4 64 +32 +32 очень
душно
1003.8 1001.1
16 16.08 СЗ 4 н/о н/о +27.2 +20.5 67 +34 +34 очень
душно
1004.3 1001.6
18 16.08 СЗ 5 20 км {ливн. осадки} 9/9
[Cu Sc Ac As]
+26.8 +16.4 53 +30 +30 душно 1003.8 1001.1 0.0
19 16.08 СЗ 5 н/о н/о +26.1 +16.7 56 +30 +30 душно 1004.6 1001.9
20 16.08 СЗ 5 н/о н/о +25.3 +15.9 56 +29 +29 душно 1005.2 1002.4
21 16.08 СЗ 5 25 км 9/9
[Cu Sc Ac trans]
+24.7 +15.6 57 +28 +28 душно 1005.8 1003.0
23 16.08 СЗ 9 н/о н/о +25.8 +14.0 48 +28 +28 жарко 1006.9 1004.1
22 16.08 СЗ 5 н/о н/о +25.1 +14.9 53 +28 +28 жарко 1006.4 1003.6
00 17.08 СЗ 7 30 км 4/3
[Cu med, cong Ac trans]
+26.9 +13.3 43 +29 +31 жарко 1007.3 1004.6 +24.7 0.0
01 17.08 СЗ 8 н/о н/о +27.7 +13.6 42 +30 +30 жарко 1007.9 1005.2
02 17.08 СЗ 7 н/о н/о +28.4 +12.7 38 +30 +30 жарко 1007.9 1005.2
03 17.08 СЗ 7 30 км 3/1
[Cu med, cong Ci sp]
+28.7 +9.4 30 +29 +34 жарко 1007.7 1005.0
05 17.08 СЗ 8 н/о н/о +29.4 +11.0 32 +30 +30 жарко 1007.3 1004.6
04 17.08 СЗ 9 н/о н/о +29.1 +11.2 33 +30 +30 жарко 1007.5 1004.8
06 17.08 СЗ 6 30 км 1/1
[Cu med, cong Ci fib]
+29.0 +11.6 34 +30 +33 жарко 1007.1 1004.4
07 17.08 СЗ 6 н/о н/о +28.6 +10.8 33 +29 +29 жарко 1007.0 1004.3
08 17.08 С 4 н/о н/о +27.5 +10.7 35 +28 +28 жарко 1007.5 1004.8
09 17.08 С 5 30 км 1/1
[Cu hum Ac trans Ci sp]
+26.9 +9.7 34 +27 +27 жарко 1008.3 1005.6
11 17.08 С 4 н/о н/о +25.0 +8.9 36 +26 +26 жарко 1010.4 1007.6
10 17.08 СЗ 6 н/о н/о +25.5 +9.4 36 +26 +26 жарко 1009.4 1006.6
12 17.08 СЗ 5 20 км 3/3
[Sc Ac trans]
+24.0 +10.3 42 +25 +25 комфорт 1011.3 1008.5 +30.0
13 17.08 С 3 н/о н/о +23.1 +10.9 46 +25 +25 комфорт 1012.0 1009.2
14 17.08 С 3 н/о н/о +22.9 +10.7 46 +25 +25 комфорт 1012.2 1009.4
15 17.08 С 2 н/о н/о +21.5 +11.5 53 +24 +24 комфорт 1012.1 1009.3
17 17.08 С 2 н/о н/о +21.1 +10.9 52 +23 +23 комфорт 1012.1 1009.3
16 17.08 СВ 2 н/о н/о +20.7 +11.4 55 +23 +23 комфорт 1012.2 1009.4
18 17.08 СЗ 3 20 км 1/0
[Ci sp]
+20.8 +10.9 53 +23 +23 комфорт 1012.3 1009.5
19 17.08 С 1 н/о н/о +18.7 +11.8 64 +20 +20 очень
холодно
1012.4 1009.6
20 17.08 С 2 н/о н/о +18.7 +12.0 65 +20 +20 очень
холодно
1012.9 1010.1
21 17.08 СЗ 3 30 км 9/1
[Cu hum Ac trans Ci sp]
+19.7 +12.7 64 +22 +22 комфорт 1013.8 1011.0
23 17.08 СЗ 2 н/о н/о +22.3 +12.8 55 +25 +25 комфорт 1013.9 1011.1
22 17.08 СЗ 2 н/о н/о +20.8 +13.3 62 +24 +24 комфорт 1013.8 1011.0
00 18.08 СВ 3 30 км 9/1
[Cu hum Ac trans Ci sp]
+23.7 +11.7 47 +25 +31 комфорт 1013.9 1011.1 +18.3
01 18.08 З 2 н/о н/о +25.5 +14.0 49 +28 +28 жарко 1013.8 1011.0
02 18.08 ЮВ 3 н/о н/о +26.2 +12.7 43 +28 +28 жарко 1013.4 1010.6
03 18.08 Ю 4 25 км 8/1
[Cu med, cong Ac trans Ci sp]
+25.5 +13.4 47 +28 +35 жарко 1012.8 1010.0
05 18.08 Ю 5 н/о н/о +25.9 +14.1 48 +28 +28 жарко 1012.3 1009.5
04 18.08 Ю 3 н/о н/о +25.9 +12.4 43 +27 +27 жарко 1012.6 1009.8
06 18.08 Ю 5 25 км 9/1
[Cu hum Ac trans Ci sp]
+25.2 +15.3 54 +28 +31 жарко 1012.0 1009.2
07 18.08 ЮВ 4 н/о н/о +25.3 +15.1 53 +28 +28 жарко 1012.1 1009.3
08 18.08 Ю 4 н/о н/о +24.0 +14.7 56 +27 +27 жарко 1012.4 1009.6
09 18.08 ЮВ 5 25 км 9/1
[Cu hum Ac trans Ci sp]
+23.5 +14.2 56 +26 +26 жарко 1012.6 1009.8
11 18.08 ЮВ 4 н/о н/о +22.7 +14.6 60 +26 +26 жарко 1013.8 1011.0
10 18.08 Ю 5 н/о н/о +23.3 +12.9 52 +26 +26 жарко 1013.2 1010.4
12 18.08 ЮВ 5 25 км 9/1
[Cu hum Ci sp]
+22.3 +15.7 66 +26 +26 жарко 1014.3 1011.5 +27.2
13 18.08 ЮВ 3 н/о н/о +22.1 +16.8 72 +26 +26 душно 1014.4 1011.6

 

Местоположение метеостанции Tokyo (Япония): широта 35.68 долгота 139.76 высота над уровнем моря 36 м.

В архиве по умолчанию представлена погода в Tokyo за последнюю неделю. Архивные данные за месяц целиком и за предыдущие месяцы, начиная с января 2011 года, Вы можете получить, выбрав интересующий диапазон дат из раскрывающегося списка и нажав кнопку "Ввод!".


*Определитесь, кто Вы:
робот инопланетянин человек

Внимание! Время в таблицах - всемирное. Для получения местного времени необходимо прибавить поправку, которая в Tokyo равна 9 ч.

Смотрите также архив погоды в соседних городах и на ближайших метеорологических станциях:

Погода в Yokohama (Япония) (30 км)
Погода в Chiba (Япония) (32 км)
Погода в Kumagaya (Япония) (62 км)
Погода в Chichibu (Япония) (71 км)
Погода в Katsuura (Япония) (77 км)
Погода в Tateyama (Япония) (78 км)
Погода в Ajiro (Япония) (92 км)
Погода в Kawaguchiko (Япония) (93 км)
Погода в Utsunomiya (Япония) (97 км)
Погода в Mishima (Япония) (98 км)

Пояснения к столбцам:

Ветер - указаны скорость ветра в м/с - средняя за 10 мин, порывы в срок и между сроками (в фигурных скобках) и направление, откуда дует ветер: С - северный, СВ - северо-восточный, В - восточный, ЮВ - юго-восточный, Ю - южный, ЮЗ - юго-западный, З - западный, СЗ - северо-западный.
Видимость - горизонтальная дальность видимости в метрах или километрах. При видимости от 1 до 10 км при отсутствии осадков обычно наблюдается дымка, при ухудшении видимости до 1 км и менее - туман. В сухую погоду видимость может ухудшаться дымом, пылью или мглою.
Явления - указаны атмосферные явления, наблюдавшиеся в срок или в последний час перед сроком; фигурными скобками обозначены явления, наблюдавшиеся между сроками (за 1-3 часа до срока); квадратными скобками обозначены град или гололедные отложения с указанием их диаметра в мм.
Облачность - указаны через наклонную черту общая и нижняя облачность в баллах и высота нижней границы облаков в метрах; квадратными скобками обозначены формы облаков: Ci - перистые, Cs - перисто-слоистые, Cc - перисто-кучевые, Ac - высококучевые, As - высокослоистые, Sc - слоисто-кучевые, Ns - слоисто-дождевые, Cu - кучевые, Cb - кучево-дождевые. Подробнее классификацию облаков см. в Атласе облаков (PDF).
T - Температура воздуха - температура, измеренная на высоте 2 м над землей.
Td - Температура точки росы - температура, при понижении до которой содержащийся в воздухе водяной пар достигнет насыщения.
f - Относительная влажность воздуха - влажноcть воздуха, измеренная на высоте 2 м над землей.
Te - Эффективная температура - температура, которую ощущает одетый по сезону человек в тени. Характеристика душности погоды. При расчете учитывается влияние влажности воздуха и скорости ветра на теплоощущения человека.
Tes - Эффективная температура на солнце - температура, которую ощущает человек, с поправкой на солнечный нагрев. Характеристика знойности погоды. Зависит от высоты солнца над горизонтом, облачности и скорости ветра. Ночью, в пасмурную погоду, а также при ветре 12 м/с и более поправка равна нулю.
P - Атмосферное давление - приведенное к уровню моря атмосферное давление.
Po - Атмосферное давление - измеренное на уровне метеостанции атмосферное давление.
Tmin - Минимальная температура - минимум температуры воздуха на высоте 2 м над землей.
Tmax - Максимальная температура - максимум температуры воздуха на высоте 2 м над землей.
R - Количество осадков - Количество выпавших осадков за период времени, мм. При наведении курсора мыши на число - период времени, за который выпало указанное количество осадков.
R24 - Количество осадков - Количество выпавших осадков за 24 часа, мм.
S - Снежный покров - Высота снежного покрова, см. При наведении курсора мыши на число - состояние снежного покрова и степень покрытия местности в баллах.